Погода в Волчанце

Россия / Приморский край     42°54′49″N   132°46′00″E
темп.,
°C
ветер,
м/с
пор.,
м/с
влажн.,
%
обл.,
%
осадки,
мм/ч
давл.,
гПа
погр.,
м
21 апреля, ср
ср2101:00+5ссз23320 0.0 102141
04:00+5ссз33300 0.0 102140
07:00+5ссз22285 0.0 102226
10:00+14зсз24160 0.0 1022737
13:00+18з36150 0.0 10211421
16:00+18зюз35150 0.0 10201101
19:00+15юз23260 0.0 1020128
22:00+9сз11370 0.0 102210
22 апреля, чт
чт2201:00+9ссв11340 0.0 102211
04:00+9ссв21370 0.0 102211
07:00+10ссв11386 0.0 102213
10:00+16ююв2229100 0.0 1023374
13:00+20ю442389 0.0 1023916
16:00+16ююв4626100 0.0 1024660
19:00+11ююв3438100 0.0 1025408
22:00+7юв225399 0.0 102754
23 апреля, пт
пт2301:00+6юв115254 0.0 102817
04:00+5вюв0150100 0.0 102712
07:00+5всв1149100 0.0 102712
10:00+11юз123598 0.0 1027332
13:00+17юз332793 0.0 1025782
16:00+18зюз3428100 0.0 1023902
19:00+14з2348100 0.0 1023138
22:00+10зсз1159100 0.0 102315
24 апреля, сб
сб2401:00+9ссз2160100 0.0 102316
04:00+9с2159100 0.0 102123
07:00+9с2362100 0.0 102056
10:00+14ссз466069 0.0 1020824
13:00+13ссз5847100 0.0 10201063
16:00+12ссз692194 0.0 10191327
19:00+9с512226 0.0 10211510
22:00+6с310280 0.0 1022612
25 апреля, вс
вс2501:00+5ссз36350 0.0 1022205
04:00+3сз22410 0.0 102233
07:00+3сз23440 0.0 102263
10:00+10сз411270 0.0 10201796
13:00+13сз610235 0.0 10182481
16:00+14сз6122198 0.0 10153249
19:00+12зсз283235 0.0 10161537
22:00+5юз116189 0.0 101817